When you browse on this site, cookies collect data to enhance your experience and personalize the content and advertising you see.
Visit our Privacy Policy to learn more. By continuing to use the site, you agree to this use of cookies and data.
  • In Austria
  • List of Countries
  • For 7 days
  • Water Temperature
  • Satellite Maps
  • Weather Map
  • News
  • Weather Widgets
  • user-avatar
    Login

    Hourly Weather Osaka

    Today, 22 April, Monday

    Time Temperature Precipitation Wind Pressure Humidity
    00:00 +22°C° 0 mm 1 mps 759 mmHg 77%
    01:00 +21°C° 0 mm 1 mps 759 mmHg 77%
    02:00 +21°C° 0 mm 1 mps 759 mmHg 78%
    03:00 +21°C° 0 mm 1 mps 759 mmHg 78%
    04:00 +21°C° 0 mm 1 mps 759 mmHg 77%
    05:00 +21°C° 0 mm 1 mps 760 mmHg 77%
    06:00 +20°C° 0 mm 1 mps 760 mmHg 77%
    07:00 +21°C° 0 mm 1 mps 760 mmHg 72%
    08:00 +22°C° 0 mm 1 mps 760 mmHg 67%
    09:00 +23°C° 0 mm 1 mps 760 mmHg 61%
    10:00 +24°C° 0 mm 2 mps 760 mmHg 54%
    11:00 +26°C° 0 mm 2 mps 760 mmHg 48%
    12:00 +27°C° 0 mm 2 mps 760 mmHg 41%
    13:00 +28°C° 0 mm 2 mps 760 mmHg 38%
    14:00 +28°C° 0 mm 3 mps 760 mmHg 35%
    15:00 +28°C° 0 mm 2 mps 759 mmHg 32%
    16:00 +27°C° 0 mm 3 mps 760 mmHg 33%
    17:00 +26°C° 0 mm 3 mps 760 mmHg 34%
    18:00 +25°C° 0 mm 4 mps 760 mmHg 35%
    19:00 +24°C° 0 mm 3 mps 761 mmHg 40%
    20:00 +22°C° 0 mm 3 mps 761 mmHg 44%
    21:00 +20°C° 0 mm 3 mps 761 mmHg 48%
    22:00 +19°C° 0 mm 2 mps 762 mmHg 50%
    23:00 +19°C° 0 mm 2 mps 762 mmHg 51%

    Tomorrow, 23 April, Tuesday

    Time Temperature Precipitation Wind Pressure Humidity
    00:00 +18°C° 0 mm 2 mps 762 mmHg 53%
    01:00 +18°C° 0 mm 2 mps 762 mmHg 53%
    02:00 +17°C° 0 mm 2 mps 762 mmHg 52%
    03:00 +17°C° 0 mm 2 mps 762 mmHg 52%
    04:00 +17°C° 0 mm 2 mps 763 mmHg 51%
    05:00 +17°C° 0 mm 2 mps 763 mmHg 51%
    06:00 +17°C° 0 mm 2 mps 763 mmHg 51%
    07:00 +19°C° 0 mm 2 mps 763 mmHg 47%
    08:00 +21°C° 0 mm 2 mps 763 mmHg 44%
    09:00 +24°C° 0 mm 2 mps 764 mmHg 40%
    10:00 +25°C° 0 mm 2 mps 763 mmHg 39%
    11:00 +27°C° 0 mm 2 mps 763 mmHg 38%
    12:00 +29°C° 0 mm 2 mps 763 mmHg 36%
    13:00 +29°C° 0 mm 2 mps 763 mmHg 38%
    14:00 +29°C° 0 mm 3 mps 763 mmHg 39%
    15:00 +29°C° 0 mm 3 mps 763 mmHg 41%
    16:00 +28°C° 0 mm 3 mps 763 mmHg 46%
    17:00 +27°C° 0 mm 3 mps 763 mmHg 51%
    18:00 +26°C° 0 mm 3 mps 763 mmHg 57%
    19:00 +25°C° 0 mm 3 mps 763 mmHg 59%
    20:00 +24°C° 0 mm 2 mps 763 mmHg 62%
    21:00 +24°C° 0 mm 2 mps 764 mmHg 65%
    22:00 +23°C° 0.1 mm 1 mps 764 mmHg 67%
    23:00 +23°C° 0.1 mm 1 mps 764 mmHg 69%

    Day after tomorrow, 24 April, Wednesday

    Time Temperature Precipitation Wind Pressure Humidity
    00:00 +22°C° 0.1 mm 1 mps 764 mmHg 71%
    01:00 +22°C° 0.4 mm 1 mps 763 mmHg 73%
    02:00 +20°C° 0.4 mm 2 mps 763 mmHg 75%
    03:00 +20°C° 0.4 mm 2 mps 763 mmHg 77%
    04:00 +20°C° 0.3 mm 2 mps 762 mmHg 77%
    05:00 +20°C° 0.3 mm 2 mps 762 mmHg 77%
    06:00 +20°C° 0.3 mm 2 mps 762 mmHg 77%
    07:00 +20°C° 0.5 mm 2 mps 762 mmHg 75%
    08:00 +20°C° 0.5 mm 2 mps 762 mmHg 73%
    09:00 +20°C° 0.5 mm 3 mps 761 mmHg 71%
    10:00 +22°C° 0 mm 3 mps 761 mmHg 63%
    11:00 +25°C° 0 mm 4 mps 761 mmHg 54%
    12:00 +27°C° 0 mm 4 mps 760 mmHg 45%
    13:00 +27°C° 0 mm 4 mps 760 mmHg 47%
    14:00 +26°C° 0 mm 4 mps 759 mmHg 49%
    15:00 +26°C° 0 mm 4 mps 758 mmHg 51%
    16:00 +25°C° 0.1 mm 3 mps 758 mmHg 55%
    17:00 +25°C° 0.1 mm 3 mps 757 mmHg 58%
    18:00 +24°C° 0.1 mm 3 mps 757 mmHg 62%
    19:00 +24°C° 0.6 mm 2 mps 756 mmHg 66%
    20:00 +23°C° 0.6 mm 2 mps 756 mmHg 69%
    21:00 +23°C° 0.6 mm 2 mps 756 mmHg 73%
    22:00 +21°C° 1.4 mm 2 mps 756 mmHg 76%
    23:00 +21°C° 1.4 mm 2 mps 755 mmHg 78%

    25 April, Thursday

    Time Temperature Precipitation Wind Pressure Humidity
    00:00 +21°C° 1.4 mm 2 mps 755 mmHg 81%
    01:00 +21°C° 0.7 mm 2 mps 754 mmHg 82%
    02:00 +22°C° 0.7 mm 1 mps 754 mmHg 83%
    03:00 +21°C° 0.7 mm 1 mps 753 mmHg 84%
    04:00 +21°C° 0 mm 1 mps 753 mmHg 84%
    05:00 +19°C° 0 mm 0 mps 753 mmHg 84%
    06:00 +19°C° 0 mm 0 mps 753 mmHg 83%
    07:00 +23°C° 0 mm 1 mps 753 mmHg 79%
    08:00 +24°C° 0 mm 1 mps 753 mmHg 74%
    09:00 +25°C° 0 mm 2 mps 753 mmHg 70%
    10:00 +26°C° 0 mm 2 mps 753 mmHg 64%
    11:00 +27°C° 0 mm 3 mps 753 mmHg 58%
    12:00 +28°C° 0 mm 4 mps 752 mmHg 52%
    13:00 +28°C° 0 mm 4 mps 752 mmHg 51%
    14:00 +29°C° 0 mm 4 mps 752 mmHg 50%
    15:00 +29°C° 0 mm 4 mps 751 mmHg 49%
    16:00 +28°C° 0.1 mm 4 mps 751 mmHg 54%
    17:00 +26°C° 0.1 mm 3 mps 752 mmHg 58%
    18:00 +25°C° 0.1 mm 3 mps 752 mmHg 62%
    19:00 +24°C° 0 mm 3 mps 752 mmHg 64%
    20:00 +22°C° 0 mm 3 mps 752 mmHg 66%
    21:00 +21°C° 0 mm 3 mps 753 mmHg 68%
    22:00 +20°C° 0 mm 3 mps 753 mmHg 68%
    23:00 +20°C° 0 mm 3 mps 753 mmHg 69%

    26 April, Friday

    Time Temperature Precipitation Wind Pressure Humidity
    00:00 +19°C° 0 mm 2 mps 753 mmHg 70%
    01:00 +19°C° 0 mm 2 mps 752 mmHg 70%
    02:00 +18°C° 0 mm 2 mps 752 mmHg 71%
    03:00 +18°C° 0 mm 2 mps 752 mmHg 71%
    04:00 +18°C° 0 mm 2 mps 753 mmHg 71%
    05:00 +18°C° 0 mm 2 mps 753 mmHg 71%
    06:00 +17°C° 0 mm 2 mps 753 mmHg 71%
    07:00 +18°C° 0 mm 2 mps 753 mmHg 69%
    08:00 +18°C° 0 mm 2 mps 754 mmHg 67%
    09:00 +18°C° 0 mm 2 mps 754 mmHg 65%
    10:00 +19°C° 0 mm 3 mps 754 mmHg 60%
    11:00 +20°C° 0 mm 4 mps 755 mmHg 55%
    12:00 +20°C° 0 mm 5 mps 755 mmHg 50%
    13:00 +19°C° 0 mm 5 mps 755 mmHg 50%
    14:00 +17°C° 0 mm 6 mps 755 mmHg 50%
    15:00 +17°C° 0 mm 6 mps 755 mmHg 50%
    16:00 +16°C° 0 mm 6 mps 756 mmHg 52%
    17:00 +15°C° 0 mm 6 mps 757 mmHg 53%
    18:00 +14°C° 0 mm 6 mps 757 mmHg 54%
    19:00 +13°C° 0 mm 5 mps 758 mmHg 56%
    20:00 +12°C° 0 mm 5 mps 758 mmHg 58%
    21:00 +12°C° 0 mm 5 mps 759 mmHg 60%
    22:00 +10°C° 0 mm 5 mps 759 mmHg 60%
    23:00 +10°C° 0 mm 5 mps 759 mmHg 61%

    27 April, Saturday

    Time Temperature Precipitation Wind Pressure Humidity
    00:00 +10°C° 0 mm 5 mps 760 mmHg 61%
    01:00 +10°C° 0 mm 5 mps 760 mmHg 61%
    02:00 +10°C° 0 mm 5 mps 760 mmHg 61%
    03:00 +9°C° 0 mm 5 mps 760 mmHg 61%
    04:00 +9°C° 0 mm 5 mps 760 mmHg 60%
    05:00 +9°C° 0 mm 5 mps 761 mmHg 60%
    06:00 +9°C° 0 mm 5 mps 761 mmHg 59%
    07:00 +10°C° 0 mm 5 mps 762 mmHg 54%
    08:00 +11°C° 0 mm 6 mps 762 mmHg 49%
    09:00 +13°C° 0 mm 6 mps 763 mmHg 44%
    10:00 +14°C° 0 mm 6 mps 763 mmHg 40%
    11:00 +15°C° 0 mm 6 mps 763 mmHg 36%
    12:00 +16°C° 0 mm 7 mps 763 mmHg 32%
    13:00 +16°C° 0 mm 7 mps 763 mmHg 30%
    14:00 +16°C° 0 mm 7 mps 763 mmHg 27%
    15:00 +16°C° 0 mm 7 mps 763 mmHg 25%
    16:00 +15°C° 0 mm 7 mps 763 mmHg 29%
    17:00 +14°C° 0 mm 7 mps 764 mmHg 32%
    18:00 +13°C° 0 mm 6 mps 764 mmHg 36%
    19:00 +13°C° 0 mm 6 mps 765 mmHg 41%
    20:00 +12°C° 0 mm 5 mps 766 mmHg 45%
    21:00 +11°C° 0 mm 4 mps 766 mmHg 50%
    22:00 +11°C° 0 mm 3 mps 767 mmHg 51%
    23:00 +11°C° 0 mm 3 mps 767 mmHg 52%
    Show more